Year,Month,Day,Hour,Minute,Value (Times are PST for temperature in C)
2016,04,18,00,00,8.60
2016,04,18,00,01,8.60
2016,04,18,00,02,8.60
2016,04,18,00,03,8.60
2016,04,18,00,04,8.60
2016,04,18,00,05,8.60
2016,04,18,00,06,8.50
2016,04,18,00,07,8.50
2016,04,18,00,08,8.50
2016,04,18,00,09,8.50
2016,04,18,00,10,8.50
2016,04,18,00,11,8.50
2016,04,18,00,12,8.50
2016,04,18,00,13,8.40
2016,04,18,00,14,8.40
2016,04,18,00,15,8.40
2016,04,18,00,16,8.40
2016,04,18,00,17,8.40
2016,04,18,00,18,8.40
2016,04,18,00,19,8.30
2016,04,18,00,20,8.30
2016,04,18,00,21,8.30
2016,04,18,00,22,8.30
2016,04,18,00,23,8.30
2016,04,18,00,24,8.30
2016,04,18,00,25,8.30
2016,04,18,00,26,8.30
2016,04,18,00,27,8.20
2016,04,18,00,28,8.20
2016,04,18,00,29,8.20
2016,04,18,00,30,8.20
2016,04,18,00,31,8.20
2016,04,18,00,32,8.20
2016,04,18,00,33,8.20
2016,04,18,00,34,8.20
2016,04,18,00,35,8.10
2016,04,18,00,36,8.10
2016,04,18,00,37,8.10
2016,04,18,00,38,8.10
2016,04,18,00,39,8.10
2016,04,18,00,40,8.10
2016,04,18,00,41,8.10
2016,04,18,00,42,8.00
2016,04,18,00,43,8.00
2016,04,18,00,44,8.00
2016,04,18,00,45,8.00
2016,04,18,00,46,8.00
2016,04,18,00,47,8.00
2016,04,18,00,48,8.00
2016,04,18,00,49,8.00
2016,04,18,00,50,7.90
2016,04,18,00,51,7.90
2016,04,18,00,52,7.90
2016,04,18,00,53,7.90
2016,04,18,00,54,7.90
2016,04,18,00,55,7.90
2016,04,18,00,56,7.90
2016,04,18,00,57,7.90
2016,04,18,00,58,7.90
2016,04,18,00,59,7.90
2016,04,18,01,00,7.90
2016,04,18,01,01,7.80
2016,04,18,01,02,7.80
2016,04,18,01,03,7.80
2016,04,18,01,04,7.80
2016,04,18,01,05,7.80
2016,04,18,01,06,7.80
2016,04,18,01,07,7.80
2016,04,18,01,08,7.80
2016,04,18,01,09,7.80
2016,04,18,01,10,7.80
2016,04,18,01,11,7.70
2016,04,18,01,12,7.70
2016,04,18,01,13,7.70
2016,04,18,01,14,7.70
2016,04,18,01,15,7.70
2016,04,18,01,16,7.70
2016,04,18,01,17,7.70
2016,04,18,01,18,7.70
2016,04,18,01,19,7.70
2016,04,18,01,20,7.70
2016,04,18,01,21,7.70
2016,04,18,01,22,7.60
2016,04,18,01,23,7.60
2016,04,18,01,24,7.60
2016,04,18,01,25,7.60
2016,04,18,01,26,7.60
2016,04,18,01,27,7.60
2016,04,18,01,28,7.60
2016,04,18,01,29,7.60
2016,04,18,01,30,7.60
2016,04,18,01,31,7.60
2016,04,18,01,32,7.60
2016,04,18,01,33,7.60
2016,04,18,01,34,7.60
2016,04,18,01,35,7.50
2016,04,18,01,36,7.50
2016,04,18,01,37,7.50
2016,04,18,01,38,7.50
2016,04,18,01,39,7.50
2016,04,18,01,40,7.40
2016,04,18,01,41,7.40
2016,04,18,01,42,7.40
2016,04,18,01,43,7.40
2016,04,18,01,44,7.40
2016,04,18,01,45,7.40
2016,04,18,01,46,7.40
2016,04,18,01,47,7.40
2016,04,18,01,48,7.40
2016,04,18,01,49,7.40
2016,04,18,01,50,7.40
2016,04,18,01,51,7.40
2016,04,18,01,52,7.40
2016,04,18,01,53,7.40
2016,04,18,01,54,7.40
2016,04,18,01,55,7.30
2016,04,18,01,56,7.30
2016,04,18,01,57,7.30
2016,04,18,01,58,7.30
2016,04,18,01,59,7.30
2016,04,18,02,00,7.30
2016,04,18,02,01,7.30
2016,04,18,02,02,7.30
2016,04,18,02,03,7.30
2016,04,18,02,04,7.30
2016,04,18,02,05,7.30
2016,04,18,02,06,7.30
2016,04,18,02,07,7.20
2016,04,18,02,08,7.20
2016,04,18,02,09,7.20
2016,04,18,02,10,7.20
2016,04,18,02,11,7.20
2016,04,18,02,12,7.20
2016,04,18,02,13,7.20
2016,04,18,02,14,7.20
2016,04,18,02,15,7.20
2016,04,18,02,16,7.20
2016,04,18,02,17,7.20
2016,04,18,02,18,7.20
2016,04,18,02,19,7.20
2016,04,18,02,20,7.20
2016,04,18,02,21,7.20
2016,04,18,02,22,7.20
2016,04,18,02,23,7.20
2016,04,18,02,24,7.20
2016,04,18,02,25,7.20
2016,04,18,02,26,7.20
2016,04,18,02,27,7.20
2016,04,18,02,28,7.20
2016,04,18,02,29,7.20
2016,04,18,02,30,7.20
2016,04,18,02,31,7.20
2016,04,18,02,32,7.20
2016,04,18,02,33,7.20
2016,04,18,02,34,7.10
2016,04,18,02,35,7.20
2016,04,18,02,36,7.20
2016,04,18,02,37,7.20
2016,04,18,02,38,7.20
2016,04,18,02,39,7.20
2016,04,18,02,40,7.20
2016,04,18,02,41,7.10
2016,04,18,02,42,7.10
2016,04,18,02,43,7.10
2016,04,18,02,44,7.10
2016,04,18,02,45,7.10
2016,04,18,02,46,7.10
2016,04,18,02,47,7.10
2016,04,18,02,48,7.10
2016,04,18,02,49,7.10
2016,04,18,02,50,7.10
2016,04,18,02,51,7.10
2016,04,18,02,52,7.10
2016,04,18,02,53,7.10
2016,04,18,02,54,7.10
2016,04,18,02,55,7.00
2016,04,18,02,56,7.00
2016,04,18,02,57,7.00
2016,04,18,02,58,7.00
2016,04,18,02,59,7.00
2016,04,18,03,00,7.00
2016,04,18,03,01,7.00
2016,04,18,03,02,7.00
2016,04,18,03,03,7.00
2016,04,18,03,04,7.00
2016,04,18,03,05,7.00
2016,04,18,03,06,7.00
2016,04,18,03,07,7.00
2016,04,18,03,08,7.00
2016,04,18,03,09,7.00
2016,04,18,03,10,7.00
2016,04,18,03,11,7.00
2016,04,18,03,12,7.00
2016,04,18,03,13,7.00
2016,04,18,03,14,7.00
2016,04,18,03,15,7.00
2016,04,18,03,16,7.00
2016,04,18,03,17,7.00
2016,04,18,03,18,7.00
2016,04,18,03,19,7.00
2016,04,18,03,20,7.00
2016,04,18,03,21,7.00
2016,04,18,03,22,7.00
2016,04,18,03,23,7.00
2016,04,18,03,24,7.00
2016,04,18,03,25,7.00
2016,04,18,03,26,7.00
2016,04,18,03,27,7.00
2016,04,18,03,28,6.90
2016,04,18,03,29,6.90
2016,04,18,03,30,6.90
2016,04,18,03,31,6.90
2016,04,18,03,32,6.90
2016,04,18,03,33,6.90
2016,04,18,03,34,6.90
2016,04,18,03,35,6.90
2016,04,18,03,36,6.90
2016,04,18,03,37,6.90
2016,04,18,03,38,6.90
2016,04,18,03,39,6.90
2016,04,18,03,40,6.90
2016,04,18,03,41,6.90
2016,04,18,03,42,6.90
2016,04,18,03,43,6.90
2016,04,18,03,44,6.90
2016,04,18,03,45,6.90
2016,04,18,03,46,6.80
2016,04,18,03,47,6.90
2016,04,18,03,48,6.80
2016,04,18,03,49,6.80
2016,04,18,03,50,6.80
2016,04,18,03,51,6.80
2016,04,18,03,52,6.80
2016,04,18,03,53,6.80
2016,04,18,03,54,6.80
2016,04,18,03,55,6.80
2016,04,18,03,56,6.80
2016,04,18,03,57,6.80
2016,04,18,03,58,6.90
2016,04,18,03,59,6.90
2016,04,18,04,00,6.90
2016,04,18,04,01,6.90
2016,04,18,04,02,6.90
2016,04,18,04,03,6.90
2016,04,18,04,04,6.90
2016,04,18,04,05,6.90
2016,04,18,04,06,6.90
2016,04,18,04,07,6.90
2016,04,18,04,08,6.90
2016,04,18,04,09,6.90
2016,04,18,04,10,6.90
2016,04,18,04,11,6.90
2016,04,18,04,12,6.90
2016,04,18,04,13,6.90
2016,04,18,04,14,6.80
2016,04,18,04,15,6.80
2016,04,18,04,16,6.80
2016,04,18,04,17,6.80
2016,04,18,04,18,6.80
2016,04,18,04,19,6.80
2016,04,18,04,20,6.80
2016,04,18,04,21,6.80
2016,04,18,04,22,6.80
2016,04,18,04,23,6.80
2016,04,18,04,24,6.80
2016,04,18,04,25,6.80
2016,04,18,04,26,6.80
2016,04,18,04,27,6.80
2016,04,18,04,28,6.80
2016,04,18,04,29,6.80
2016,04,18,04,30,6.80
2016,04,18,04,31,6.80
2016,04,18,04,32,6.80
2016,04,18,04,33,6.80
2016,04,18,04,34,6.90
2016,04,18,04,35,6.90
2016,04,18,04,36,6.90
2016,04,18,04,37,6.90
2016,04,18,04,38,6.90
2016,04,18,04,39,6.90
2016,04,18,04,40,6.90
2016,04,18,04,41,6.90
2016,04,18,04,42,6.90
2016,04,18,04,43,6.90
2016,04,18,04,44,6.90
2016,04,18,04,45,6.90
2016,04,18,04,46,6.90
2016,04,18,04,47,6.90
2016,04,18,04,48,6.90
2016,04,18,04,49,6.90
2016,04,18,04,50,6.90
2016,04,18,04,51,6.90
2016,04,18,04,52,6.90
2016,04,18,04,53,6.90
2016,04,18,04,54,6.90
2016,04,18,04,55,6.90
2016,04,18,04,56,6.90
2016,04,18,04,57,6.90
2016,04,18,04,58,7.00
2016,04,18,04,59,7.00
2016,04,18,05,00,7.00
2016,04,18,05,01,7.00
2016,04,18,05,02,7.00
2016,04,18,05,03,7.00
2016,04,18,05,04,7.00
2016,04,18,05,05,7.00
2016,04,18,05,06,7.00
2016,04,18,05,07,6.90
2016,04,18,05,08,6.90
2016,04,18,05,09,6.90
2016,04,18,05,10,6.90
2016,04,18,05,11,6.90
2016,04,18,05,12,6.90
2016,04,18,05,13,6.90
2016,04,18,05,14,6.90
2016,04,18,05,15,6.90
2016,04,18,05,16,6.90
2016,04,18,05,17,6.90
2016,04,18,05,18,6.90
2016,04,18,05,19,6.90
2016,04,18,05,20,6.90
2016,04,18,05,21,6.90
2016,04,18,05,22,6.90
2016,04,18,05,23,6.90
2016,04,18,05,24,6.90
2016,04,18,05,25,6.90
2016,04,18,05,26,6.90
2016,04,18,05,27,6.90
2016,04,18,05,28,6.90
2016,04,18,05,29,6.90
2016,04,18,05,30,6.90
2016,04,18,05,31,6.90
2016,04,18,05,32,6.90
2016,04,18,05,33,6.90
2016,04,18,05,34,6.90
2016,04,18,05,35,6.90
2016,04,18,05,36,6.90
2016,04,18,05,37,6.90
2016,04,18,05,38,6.90
2016,04,18,05,39,6.90
2016,04,18,05,40,6.90
2016,04,18,05,41,6.80
2016,04,18,05,42,6.80
2016,04,18,05,43,6.80
2016,04,18,05,44,6.80
2016,04,18,05,45,6.80
2016,04,18,05,46,6.80
2016,04,18,05,47,6.80
2016,04,18,05,48,6.80
2016,04,18,05,49,6.80
2016,04,18,05,50,6.80
2016,04,18,05,51,6.80
2016,04,18,05,52,6.80
2016,04,18,05,53,6.80
2016,04,18,05,54,6.80
2016,04,18,05,55,6.80
2016,04,18,05,56,6.80
2016,04,18,05,57,6.80
2016,04,18,05,58,6.80
2016,04,18,05,59,6.80
2016,04,18,06,00,6.80
2016,04,18,06,01,6.70
2016,04,18,06,02,6.70
2016,04,18,06,03,6.70
2016,04,18,06,04,6.70
2016,04,18,06,05,6.70
2016,04,18,06,06,6.80
2016,04,18,06,07,6.70
2016,04,18,06,08,6.70
2016,04,18,06,09,6.70
2016,04,18,06,10,6.70
2016,04,18,06,11,6.70
2016,04,18,06,12,6.70
2016,04,18,06,13,6.70
2016,04,18,06,14,6.70
2016,04,18,06,15,6.70
2016,04,18,06,16,6.70
2016,04,18,06,17,6.70
2016,04,18,06,18,6.70
2016,04,18,06,19,6.70
2016,04,18,06,20,6.70
2016,04,18,06,21,6.70
2016,04,18,06,22,6.70
2016,04,18,06,23,6.70
2016,04,18,06,24,6.70
2016,04,18,06,25,6.70
2016,04,18,06,26,6.60
2016,04,18,06,27,6.60
2016,04,18,06,28,6.60
2016,04,18,06,29,6.60
2016,04,18,06,30,6.60
2016,04,18,06,31,6.60
2016,04,18,06,32,6.60
2016,04,18,06,33,6.60
2016,04,18,06,34,6.60
2016,04,18,06,35,6.60
2016,04,18,06,36,6.60
2016,04,18,06,37,6.60
2016,04,18,06,38,6.60
2016,04,18,06,39,6.50
2016,04,18,06,40,6.50
2016,04,18,06,41,6.50
2016,04,18,06,42,6.50
2016,04,18,06,43,6.50
2016,04,18,06,44,6.50
2016,04,18,06,45,6.50
2016,04,18,06,46,6.50
2016,04,18,06,47,6.50
2016,04,18,06,48,6.40
2016,04,18,06,49,6.40
2016,04,18,06,50,6.50
2016,04,18,06,51,6.50
2016,04,18,06,52,6.40
2016,04,18,06,53,6.40
2016,04,18,06,54,6.40
2016,04,18,06,55,6.40
2016,04,18,06,56,6.40
2016,04,18,06,57,6.50
2016,04,18,06,58,6.50
2016,04,18,06,59,6.50
2016,04,18,07,00,6.50
2016,04,18,07,01,6.50
2016,04,18,07,02,6.60
2016,04,18,07,03,6.60
2016,04,18,07,04,6.60
2016,04,18,07,05,6.60
2016,04,18,07,06,6.60
2016,04,18,07,07,6.60
2016,04,18,07,08,6.70
2016,04,18,07,09,6.70
2016,04,18,07,10,6.70
2016,04,18,07,11,6.70
2016,04,18,07,12,6.70
2016,04,18,07,13,6.70
2016,04,18,07,14,6.70
2016,04,18,07,15,6.70
2016,04,18,07,16,6.70
2016,04,18,07,17,6.70
2016,04,18,07,18,6.70
2016,04,18,07,19,6.70
2016,04,18,07,20,6.80
2016,04,18,07,21,6.80
2016,04,18,07,22,6.80
2016,04,18,07,23,6.80
2016,04,18,07,24,6.80
2016,04,18,07,25,6.80
2016,04,18,07,26,6.80
2016,04,18,07,27,6.80
2016,04,18,07,28,6.90
2016,04,18,07,29,6.90
2016,04,18,07,30,6.90
2016,04,18,07,31,6.90
2016,04,18,07,32,6.90
2016,04,18,07,33,6.90
2016,04,18,07,34,7.00
2016,04,18,07,35,7.00
2016,04,18,07,36,7.00
2016,04,18,07,37,7.10
2016,04,18,07,38,7.10
2016,04,18,07,39,7.10
2016,04,18,07,40,7.20
2016,04,18,07,41,7.20
2016,04,18,07,42,7.20
2016,04,18,07,43,7.20
2016,04,18,07,44,7.30
2016,04,18,07,45,7.30
2016,04,18,07,46,7.40
2016,04,18,07,47,7.40
2016,04,18,07,48,7.40
2016,04,18,07,49,7.50
2016,04,18,07,50,7.50
2016,04,18,07,51,7.60
2016,04,18,07,52,7.60
2016,04,18,07,53,7.60
2016,04,18,07,54,7.60
2016,04,18,07,55,7.70
2016,04,18,07,56,7.70
2016,04,18,07,57,7.70
2016,04,18,07,58,7.80
2016,04,18,07,59,7.80
2016,04,18,08,00,7.80
2016,04,18,08,01,7.90
2016,04,18,08,02,7.90
2016,04,18,08,03,7.90
2016,04,18,08,04,8.00
2016,04,18,08,05,8.00
2016,04,18,08,06,8.10
2016,04,18,08,07,8.20
2016,04,18,08,08,8.20
2016,04,18,08,09,8.30
2016,04,18,08,10,8.30
2016,04,18,08,11,8.30
2016,04,18,08,12,8.40
2016,04,18,08,13,8.40
2016,04,18,08,14,8.50
2016,04,18,08,15,8.50
2016,04,18,08,16,8.60
2016,04,18,08,17,8.60
2016,04,18,08,18,8.70
2016,04,18,08,19,8.70
2016,04,18,08,20,8.80
2016,04,18,08,21,8.80
2016,04,18,08,22,8.90
2016,04,18,08,23,9.00
2016,04,18,08,24,9.00
2016,04,18,08,25,9.10
2016,04,18,08,26,9.20
2016,04,18,08,27,9.20
2016,04,18,08,28,9.30
2016,04,18,08,29,9.40
2016,04,18,08,30,9.50
2016,04,18,08,31,9.60
2016,04,18,08,32,9.60
2016,04,18,08,33,9.70
2016,04,18,08,34,9.70
2016,04,18,08,35,9.80
2016,04,18,08,36,9.90
2016,04,18,08,37,9.90
2016,04,18,08,38,10.00
2016,04,18,08,39,10.10
2016,04,18,08,40,10.10
2016,04,18,08,41,10.20
2016,04,18,08,42,10.20
2016,04,18,08,43,10.30
2016,04,18,08,44,10.40
2016,04,18,08,45,10.40
2016,04,18,08,46,10.50
2016,04,18,08,47,10.50
2016,04,18,08,48,10.60
2016,04,18,08,49,10.70
2016,04,18,08,50,10.80
2016,04,18,08,51,10.80
2016,04,18,08,52,10.90
2016,04,18,08,53,11.00
2016,04,18,08,54,11.00
2016,04,18,08,55,11.10
2016,04,18,08,56,11.20
2016,04,18,08,57,11.30
2016,04,18,08,58,11.40
2016,04,18,08,59,11.40
2016,04,18,09,00,11.50
2016,04,18,09,01,11.60
2016,04,18,09,02,11.60
2016,04,18,09,03,11.70
2016,04,18,09,04,11.70
2016,04,18,09,05,11.80
2016,04,18,09,06,11.90
2016,04,18,09,07,12.00
2016,04,18,09,08,12.10
2016,04,18,09,09,12.20
2016,04,18,09,10,12.30
2016,04,18,09,11,12.30
2016,04,18,09,12,12.40
2016,04,18,09,13,12.50
2016,04,18,09,14,12.60
2016,04,18,09,15,12.70
2016,04,18,09,16,12.80
2016,04,18,09,17,12.90
2016,04,18,09,18,13.10
2016,04,18,09,19,13.20
2016,04,18,09,20,13.30
2016,04,18,09,21,13.40
2016,04,18,09,22,13.50
2016,04,18,09,23,13.60
2016,04,18,09,24,13.80
2016,04,18,09,25,13.90
2016,04,18,09,26,14.00
2016,04,18,09,27,14.10
2016,04,18,09,28,14.20
2016,04,18,09,29,14.30
2016,04,18,09,30,14.50
2016,04,18,09,31,14.60
2016,04,18,09,32,14.70
2016,04,18,09,33,14.90
2016,04,18,09,34,15.00
2016,04,18,09,35,15.00
2016,04,18,09,36,15.10
2016,04,18,09,37,15.30
2016,04,18,09,38,15.50
2016,04,18,09,39,15.60
2016,04,18,09,40,15.70
2016,04,18,09,41,15.90
2016,04,18,09,42,16.00
2016,04,18,09,43,16.10
2016,04,18,09,44,16.20
2016,04,18,09,45,16.30
2016,04,18,09,46,16.40
2016,04,18,09,47,16.50
2016,04,18,09,48,16.60
2016,04,18,09,49,16.70
2016,04,18,09,50,16.80
2016,04,18,09,51,16.90
2016,04,18,09,52,17.10
2016,04,18,09,53,17.20
2016,04,18,09,54,17.30
2016,04,18,09,55,17.50
2016,04,18,09,56,17.60
2016,04,18,09,57,17.70
2016,04,18,09,58,17.80
2016,04,18,09,59,18.00
2016,04,18,10,00,18.10
2016,04,18,10,01,18.20
2016,04,18,10,02,18.20
2016,04,18,10,03,18.30
2016,04,18,10,04,18.40
2016,04,18,10,05,18.40
2016,04,18,10,06,18.50
2016,04,18,10,07,18.60
2016,04,18,10,08,18.60
2016,04,18,10,09,18.80
2016,04,18,10,10,18.80
2016,04,18,10,11,18.90
2016,04,18,10,12,19.00
2016,04,18,10,13,19.10
2016,04,18,10,14,19.20
2016,04,18,10,15,19.20
2016,04,18,10,16,19.20
2016,04,18,10,17,19.30
2016,04,18,10,18,19.40
2016,04,18,10,19,19.40
2016,04,18,10,20,19.50
2016,04,18,10,21,19.60
2016,04,18,10,22,19.70
2016,04,18,10,23,19.70
2016,04,18,10,24,19.70
2016,04,18,10,25,19.80
2016,04,18,10,26,19.80
2016,04,18,10,27,19.80
2016,04,18,10,28,19.80
2016,04,18,10,29,19.80
2016,04,18,10,30,19.90
2016,04,18,10,31,19.90
2016,04,18,10,32,20.00
2016,04,18,10,33,20.00
2016,04,18,10,34,20.10
2016,04,18,10,35,20.20
2016,04,18,10,36,20.30
2016,04,18,10,37,20.40
2016,04,18,10,38,20.50
2016,04,18,10,39,20.60
2016,04,18,10,40,20.60
2016,04,18,10,41,20.70
2016,04,18,10,42,20.70
2016,04,18,10,43,20.70
2016,04,18,10,44,20.70
2016,04,18,10,45,20.70
2016,04,18,10,46,20.80
2016,04,18,10,47,20.80
2016,04,18,10,48,20.80
2016,04,18,10,49,20.90
2016,04,18,10,50,20.90
2016,04,18,10,51,21.00
2016,04,18,10,52,21.10
2016,04,18,10,53,21.10
2016,04,18,10,54,21.20
2016,04,18,10,55,21.30
2016,04,18,10,56,21.30
2016,04,18,10,57,21.30
2016,04,18,10,58,21.30
2016,04,18,10,59,21.40
2016,04,18,11,00,21.40
2016,04,18,11,01,21.50
2016,04,18,11,02,21.60
2016,04,18,11,03,21.60
2016,04,18,11,04,21.70
2016,04,18,11,05,21.70
2016,04,18,11,06,21.80
2016,04,18,11,07,21.80
2016,04,18,11,08,21.80
2016,04,18,11,09,21.80
2016,04,18,11,10,21.80
2016,04,18,11,11,21.80
2016,04,18,11,12,21.80
2016,04,18,11,13,21.80
2016,04,18,11,14,21.80
2016,04,18,11,15,21.80
2016,04,18,11,16,21.80
2016,04,18,11,17,21.80
2016,04,18,11,18,21.80
2016,04,18,11,19,21.80
2016,04,18,11,20,21.80
2016,04,18,11,21,21.90
2016,04,18,11,22,21.90
2016,04,18,11,23,21.90
2016,04,18,11,24,22.00
2016,04,18,11,25,22.10
2016,04,18,11,26,22.10
2016,04,18,11,27,22.20
2016,04,18,11,28,22.20
2016,04,18,11,29,22.30
2016,04,18,11,30,22.30
2016,04,18,11,31,22.30
2016,04,18,11,32,22.40
2016,04,18,11,33,22.40
2016,04,18,11,34,22.50
2016,04,18,11,35,22.60
2016,04,18,11,36,22.60
2016,04,18,11,37,22.60
2016,04,18,11,38,22.60
2016,04,18,11,39,22.60
2016,04,18,11,40,22.60
2016,04,18,11,41,22.60
2016,04,18,11,42,22.60
2016,04,18,11,43,22.60
2016,04,18,11,44,22.60
2016,04,18,11,45,22.60
2016,04,18,11,46,22.70
2016,04,18,11,47,22.70
2016,04,18,11,48,22.70
2016,04,18,11,49,22.60
2016,04,18,11,50,22.60
2016,04,18,11,51,22.60
2016,04,18,11,52,22.60
2016,04,18,11,53,22.60
2016,04,18,11,54,22.70
2016,04,18,11,55,22.80
2016,04,18,11,56,22.90
2016,04,18,11,57,23.00
2016,04,18,11,58,23.10
2016,04,18,11,59,23.20
2016,04,18,12,00,23.20
2016,04,18,12,01,23.20
2016,04,18,12,02,23.10
2016,04,18,12,03,23.10
2016,04,18,12,04,23.10
2016,04,18,12,05,23.00
2016,04,18,12,06,23.00
2016,04,18,12,07,23.00
2016,04,18,12,08,23.00
2016,04,18,12,09,23.00
2016,04,18,12,10,23.00
2016,04,18,12,11,23.00
2016,04,18,12,12,23.00
2016,04,18,12,13,23.10
2016,04,18,12,14,23.10
2016,04,18,12,15,23.20
2016,04,18,12,16,23.20
2016,04,18,12,17,23.20
2016,04,18,12,18,23.20
2016,04,18,12,19,23.20
2016,04,18,12,20,23.20
2016,04,18,12,21,23.20
2016,04,18,12,22,23.30
2016,04,18,12,23,23.30
2016,04,18,12,24,23.40
2016,04,18,12,25,23.50
2016,04,18,12,26,23.50
2016,04,18,12,27,23.60
2016,04,18,12,28,23.60
2016,04,18,12,29,23.70
2016,04,18,12,30,23.70
2016,04,18,12,31,23.80
2016,04,18,12,32,23.90
2016,04,18,12,33,24.00
2016,04,18,12,34,24.00
2016,04,18,12,35,24.10
2016,04,18,12,36,24.10
2016,04,18,12,37,24.10
2016,04,18,12,38,24.10
2016,04,18,12,39,24.20
2016,04,18,12,40,24.20
2016,04,18,12,41,24.30
2016,04,18,12,42,24.40
2016,04,18,12,43,24.40
2016,04,18,12,44,24.50
2016,04,18,12,45,24.60
2016,04,18,12,46,24.60
2016,04,18,12,47,24.70
2016,04,18,12,48,24.80
2016,04,18,12,49,24.80
2016,04,18,12,50,24.90
2016,04,18,12,51,24.90
2016,04,18,12,52,24.90
2016,04,18,12,53,24.90
2016,04,18,12,54,24.90
2016,04,18,12,55,24.90
2016,04,18,12,56,24.90
2016,04,18,12,57,24.90
2016,04,18,12,58,25.00
2016,04,18,12,59,25.00
2016,04,18,13,00,25.10
2016,04,18,13,01,25.10
2016,04,18,13,02,25.20
2016,04,18,13,03,25.20
2016,04,18,13,04,25.30
2016,04,18,13,05,25.40
2016,04,18,13,06,25.40
2016,04,18,13,07,25.50
2016,04,18,13,08,25.50
2016,04,18,13,09,25.50
2016,04,18,13,10,25.60
2016,04,18,13,11,25.70
2016,04,18,13,12,25.70
2016,04,18,13,13,25.70
2016,04,18,13,14,25.80
2016,04,18,13,15,25.70
2016,04,18,13,16,25.60
2016,04,18,13,17,25.60
2016,04,18,13,18,25.50
2016,04,18,13,19,25.50
2016,04,18,13,20,25.50
2016,04,18,13,21,25.40
2016,04,18,13,22,25.50
2016,04,18,13,23,25.50
2016,04,18,13,24,25.60
2016,04,18,13,25,25.60
2016,04,18,13,26,25.60
2016,04,18,13,27,25.70
2016,04,18,13,28,25.80
2016,04,18,13,29,25.80
2016,04,18,13,30,25.80
2016,04,18,13,31,25.80
2016,04,18,13,32,25.70
2016,04,18,13,33,25.70
2016,04,18,13,34,25.70
2016,04,18,13,35,25.70
2016,04,18,13,36,25.70
2016,04,18,13,37,25.70
2016,04,18,13,38,25.70
2016,04,18,13,39,25.80
2016,04,18,13,40,25.80
2016,04,18,13,41,25.80
2016,04,18,13,42,25.80
2016,04,18,13,43,25.90
2016,04,18,13,44,25.90
2016,04,18,13,45,25.90
2016,04,18,13,46,26.00
2016,04,18,13,47,26.10
2016,04,18,13,48,26.10
2016,04,18,13,49,26.20
2016,04,18,13,50,26.20
2016,04,18,13,51,26.30
2016,04,18,13,52,26.40
2016,04,18,13,53,26.50
2016,04,18,13,54,26.60
2016,04,18,13,55,26.70
2016,04,18,13,56,26.80
2016,04,18,13,57,26.80
2016,04,18,13,58,26.90
2016,04,18,13,59,26.90
2016,04,18,14,00,27.00
2016,04,18,14,01,27.00
2016,04,18,14,02,27.00
2016,04,18,14,03,26.90
2016,04,18,14,04,26.80
2016,04,18,14,05,26.70
2016,04,18,14,06,26.60
2016,04,18,14,07,26.50
2016,04,18,14,08,26.50
2016,04,18,14,09,26.50
2016,04,18,14,10,26.40
2016,04,18,14,11,26.40
2016,04,18,14,12,26.40
2016,04,18,14,13,26.40
2016,04,18,14,14,26.40
2016,04,18,14,15,26.40
2016,04,18,14,16,26.40
2016,04,18,14,17,26.40
2016,04,18,14,18,26.50
2016,04,18,14,19,26.50
2016,04,18,14,20,26.50
2016,04,18,14,21,26.50
2016,04,18,14,22,26.60
2016,04,18,14,23,26.60
2016,04,18,14,24,26.70
2016,04,18,14,25,26.70
2016,04,18,14,26,26.70
2016,04,18,14,27,26.80
2016,04,18,14,28,26.80
2016,04,18,14,29,26.90
2016,04,18,14,30,27.00
2016,04,18,14,31,27.00
2016,04,18,14,32,27.10
2016,04,18,14,33,27.10
2016,04,18,14,34,27.10
2016,04,18,14,35,27.10
2016,04,18,14,36,27.10
2016,04,18,14,37,27.10
2016,04,18,14,38,27.10
2016,04,18,14,39,27.10
2016,04,18,14,40,27.10
2016,04,18,14,41,27.20
2016,04,18,14,42,27.20
2016,04,18,14,43,27.20
2016,04,18,14,44,27.20
2016,04,18,14,45,27.10
2016,04,18,14,46,27.20
2016,04,18,14,47,27.20
2016,04,18,14,48,27.20
2016,04,18,14,49,27.30
2016,04,18,14,50,27.30
2016,04,18,14,51,27.30
2016,04,18,14,52,27.20
2016,04,18,14,53,27.20
2016,04,18,14,54,27.20
2016,04,18,14,55,27.20
2016,04,18,14,56,27.20
2016,04,18,14,57,27.30
2016,04,18,14,58,27.30
2016,04,18,14,59,27.30
2016,04,18,15,00,27.30
2016,04,18,15,01,27.40
2016,04,18,15,02,27.40
2016,04,18,15,03,27.40
2016,04,18,15,04,27.50
2016,04,18,15,05,27.60
2016,04,18,15,06,27.60
2016,04,18,15,07,27.70
2016,04,18,15,08,27.70
2016,04,18,15,09,27.70
2016,04,18,15,10,27.60
2016,04,18,15,11,27.60
2016,04,18,15,12,27.60
2016,04,18,15,13,27.60
2016,04,18,15,14,27.60
2016,04,18,15,15,27.70
2016,04,18,15,16,27.70
2016,04,18,15,17,27.70
2016,04,18,15,18,27.70
2016,04,18,15,19,27.70
2016,04,18,15,20,27.70
2016,04,18,15,21,27.70
2016,04,18,15,22,27.70
2016,04,18,15,23,27.80
2016,04,18,15,24,27.80
2016,04,18,15,25,27.80
2016,04,18,15,26,27.90
2016,04,18,15,27,27.90
2016,04,18,15,28,27.80
2016,04,18,15,29,27.80
2016,04,18,15,30,27.80
2016,04,18,15,31,27.80
2016,04,18,15,32,27.80
2016,04,18,15,33,27.80
2016,04,18,15,34,27.80
2016,04,18,15,35,27.90
2016,04,18,15,36,27.80
2016,04,18,15,37,27.80
2016,04,18,15,38,27.80
2016,04,18,15,39,27.80
2016,04,18,15,40,27.80
2016,04,18,15,41,27.80
2016,04,18,15,42,27.80
2016,04,18,15,43,27.90
2016,04,18,15,44,27.90
2016,04,18,15,45,27.90
2016,04,18,15,46,28.00
2016,04,18,15,47,28.00
2016,04,18,15,48,28.00
2016,04,18,15,49,27.90
2016,04,18,15,50,27.90
2016,04,18,15,51,27.90
2016,04,18,15,52,27.90
2016,04,18,15,53,27.90
2016,04,18,15,54,27.80
2016,04,18,15,55,27.80
2016,04,18,15,56,27.70
2016,04,18,15,57,27.70
2016,04,18,15,58,27.60
2016,04,18,15,59,27.60
2016,04,18,16,00,27.60
2016,04,18,16,01,27.60
2016,04,18,16,02,27.60
2016,04,18,16,03,27.60
2016,04,18,16,04,27.70
2016,04,18,16,05,27.70
2016,04,18,16,06,27.70
2016,04,18,16,07,27.80
2016,04,18,16,08,27.80
2016,04,18,16,09,27.80
2016,04,18,16,10,27.80
2016,04,18,16,11,27.80
2016,04,18,16,12,27.80
2016,04,18,16,13,27.80
2016,04,18,16,14,27.70
2016,04,18,16,15,27.70
2016,04,18,16,16,27.70
2016,04,18,16,17,27.70
2016,04,18,16,18,27.70
2016,04,18,16,19,27.70
2016,04,18,16,20,27.70
2016,04,18,16,21,27.70
2016,04,18,16,22,27.70
2016,04,18,16,23,27.60
2016,04,18,16,24,27.60
2016,04,18,16,25,27.60
2016,04,18,16,26,27.60
2016,04,18,16,27,27.60
2016,04,18,16,28,27.60
2016,04,18,16,29,27.70
2016,04,18,16,30,27.70
2016,04,18,16,31,27.70
2016,04,18,16,32,27.70
2016,04,18,16,33,27.80
2016,04,18,16,34,27.80
2016,04,18,16,35,27.80
2016,04,18,16,36,27.80
2016,04,18,16,37,27.80
2016,04,18,16,38,27.80
2016,04,18,16,39,27.80
2016,04,18,16,40,27.90
2016,04,18,16,41,27.90
2016,04,18,16,42,27.90
2016,04,18,16,43,27.90
2016,04,18,16,44,27.90
2016,04,18,16,45,27.90
2016,04,18,16,46,27.90
2016,04,18,16,47,28.00
2016,04,18,16,48,28.00
2016,04,18,16,49,27.90
2016,04,18,16,50,27.90
2016,04,18,16,51,27.80
2016,04,18,16,52,27.70
2016,04,18,16,53,27.60
2016,04,18,16,54,27.50
2016,04,18,16,55,27.40
2016,04,18,16,56,27.30
2016,04,18,16,57,27.20
2016,04,18,16,58,27.20
2016,04,18,16,59,27.10
2016,04,18,17,00,27.10
2016,04,18,17,01,27.00
2016,04,18,17,02,26.90
2016,04,18,17,03,26.90
2016,04,18,17,04,26.80
2016,04,18,17,05,26.80
2016,04,18,17,06,26.80
2016,04,18,17,07,26.80
2016,04,18,17,08,26.80
2016,04,18,17,09,26.80
2016,04,18,17,10,26.80
2016,04,18,17,11,26.80
2016,04,18,17,12,26.90
2016,04,18,17,13,26.90
2016,04,18,17,14,26.90
2016,04,18,17,15,26.90
2016,04,18,17,16,26.90
2016,04,18,17,17,26.90
2016,04,18,17,18,27.00
2016,04,18,17,19,27.00
2016,04,18,17,20,27.00
2016,04,18,17,21,27.00
2016,04,18,17,22,27.00
2016,04,18,17,23,26.90
2016,04,18,17,24,27.00
2016,04,18,17,25,27.00
2016,04,18,17,26,27.00
2016,04,18,17,27,27.00
2016,04,18,17,28,27.00
2016,04,18,17,29,27.00
2016,04,18,17,30,27.00
2016,04,18,17,31,27.10
2016,04,18,17,32,27.10
2016,04,18,17,33,27.10
2016,04,18,17,34,27.10
2016,04,18,17,35,27.10
2016,04,18,17,36,27.10
2016,04,18,17,37,27.10
2016,04,18,17,38,27.10
2016,04,18,17,39,27.20
2016,04,18,17,40,27.20
2016,04,18,17,41,27.20